| time (UTC) | temp F | wind direction | speed MPH | gust MPH | rain 1hr in | rain 24hr in | rain mn in | humidity % | barometer mb |
| 20260506163504 | 65 | 244 | 2.0 | 5.0 | 0.00 | 0.00 | 0.00 | 83 | 997.9 |
| 20260506163004 | 64 | 283 | 2.0 | 5.0 | 0.00 | 0.00 | 0.00 | 84 | 998.2 |
| 20260506162004 | 62 | 153 | 2.0 | 5.0 | 0.00 | 0.00 | 0.00 | 90 | 998.8 |
| 20260506161504 | 60 | 191 | 3.0 | 6.0 | 0.00 | 0.00 | 0.00 | 91 | 998.4 |
| 20260506160504 | 60 | 175 | 3.0 | 9.0 | 0.00 | 0.00 | 0.00 | 91 | 998.6 |
| 20260506160004 | 59 | 107 | 3.0 | 6.0 | 0.00 | 0.00 | 0.00 | 92 | 999.1 |
| 20260506155504 | 59 | 47 | 1.0 | 5.0 | 0.00 | 0.00 | 0.00 | 93 | 999.0 |
| 20260506155004 | 59 | 148 | 3.0 | 6.0 | 0.00 | 0.00 | 0.00 | 93 | 999.2 |
| 20260506154504 | 60 | 115 | 4.0 | 10.0 | 0.00 | 0.00 | 0.00 | 93 | 999.0 |
| 20260506154004 | 60 | 91 | 5.0 | 8.0 | 0.00 | 0.00 | 0.00 | 93 | 998.9 |
| 20260506153503 | 60 | 41 | 3.0 | 13.0 | 0.00 | 0.00 | 0.00 | 93 | 999.3 |
| 20260506153004 | 61 | 106 | 5.0 | 16.0 | 0.00 | 0.00 | 0.00 | 92 | 999.0 |
| 20260506152504 | 61 | 120 | 5.0 | 10.0 | 0.00 | 0.00 | 0.00 | 92 | 999.2 |
| 20260506152004 | 62 | 98 | 3.0 | 8.0 | 0.00 | 0.00 | 0.00 | 91 | 998.9 |
| 20260506151504 | 62 | 113 | 4.0 | 7.0 | 0.00 | 0.00 | 0.00 | 91 | 999.3 |
| 20260506151004 | 62 | 87 | 3.0 | 10.0 | 0.00 | 0.00 | 0.00 | 91 | 999.0 |
| 20260506150504 | 62 | 109 | 5.0 | 8.0 | 0.00 | 0.00 | 0.00 | 91 | 998.4 |
| 20260506150004 | 62 | 297 | 4.0 | 10.0 | 0.00 | 0.00 | 0.00 | 91 | 997.9 |
| 20260506145504 | 62 | 154 | 4.0 | 10.0 | 0.00 | 0.00 | 0.00 | 92 | 997.9 |
| 20260506145004 | 63 | 121 | 4.0 | 10.0 | 0.00 | 0.00 | 0.00 | 91 | 997.8 |
| 20260506144504 | 63 | 162 | 5.0 | 9.0 | 0.00 | 0.00 | 0.00 | 91 | 997.3 |
| 20260506144003 | 64 | 184 | 3.0 | 7.0 | 0.00 | 0.00 | 0.00 | 91 | 997.1 |
| 20260506143004 | 65 | 58 | 6.0 | 9.0 | 0.00 | 0.00 | 0.00 | 90 | 997.3 |
| 20260506142504 | 65 | 63 | 3.0 | 8.0 | 0.00 | 0.00 | 0.00 | 90 | 997.2 |
| 20260506142004 | 66 | 136 | 3.0 | 7.0 | 0.00 | 0.00 | 0.00 | 90 | 996.8 |
| 20260506141504 | 67 | 95 | 5.0 | 7.0 | 0.00 | 0.00 | 0.00 | 89 | 996.5 |
| 20260506141004 | 67 | 133 | 2.0 | 3.0 | 0.00 | 0.00 | 0.00 | 90 | 996.5 |
| 20260506135004 | 75 | 53 | 2.0 | 6.0 | 0.00 | 0.00 | 0.00 | 89 | 996.2 |
| 20260506134504 | 74 | 160 | 0.0 | 1.0 | 0.00 | 0.00 | 0.00 | 91 | 996.0 |
| 20260506134004 | 74 | 182 | 1.0 | 3.0 | 0.00 | 0.00 | 0.00 | 91 | 995.8 |
| 20260506133504 | 74 | 198 | 2.0 | 3.0 | 0.00 | 0.00 | 0.00 | 91 | 995.7 |
| 20260506133004 | 74 | 183 | 2.0 | 3.0 | 0.00 | 0.00 | 0.00 | 91 | 995.8 |
| 20260506132504 | 74 | 185 | 1.0 | 2.0 | 0.00 | 0.00 | 0.00 | 92 | 995.8 |
| 20260506132004 | 74 | 226 | 0.0 | 0.0 | 0.00 | 0.00 | 0.00 | 92 | 995.9 |
| 20260506131504 | 74 | 223 | 1.0 | 1.0 | 0.00 | 0.00 | 0.00 | 92 | 995.8 |
| 20260506130504 | 74 | 193 | 1.0 | 3.0 | 0.00 | 0.00 | 0.00 | 93 | 995.3 |
| 20260506130005 | 73 | 277 | 0.0 | 2.0 | 0.00 | 0.00 | 0.00 | 93 | 995.4 |
| 20260506125504 | 73 | 215 | 1.0 | 2.0 | 0.00 | 0.00 | 0.00 | 93 | 995.4 |
| 20260506125004 | 73 | 190 | 1.0 | 2.0 | 0.00 | 0.00 | 0.00 | 93 | 995.4 |
| 20260506124504 | 73 | 192 | 1.0 | 3.0 | 0.00 | 0.00 | 0.00 | 93 | 995.3 |
| 20260506124004 | 73 | 210 | 0.0 | 2.0 | 0.00 | 0.00 | 0.00 | 93 | 995.1 |
| 20260506123503 | 73 | 223 | 0.0 | 0.0 | 0.00 | 0.00 | 0.00 | 93 | 995.3 |
| 20260506122004 | 73 | 197 | 1.0 | 2.0 | 0.00 | 0.00 | 0.00 | 92 | 995.0 |
| 20260506121504 | 73 | 206 | 0.0 | 0.0 | 0.00 | 0.00 | 0.00 | 92 | 995.0 |
| 20260506121003 | 73 | 244 | 0.0 | 0.0 | 0.00 | 0.00 | 0.00 | 92 | 995.0 |
| 20260506120004 | 73 | 271 | 0.0 | 0.0 | 0.00 | 0.00 | 0.00 | 92 | 994.9 |
| 20260506115504 | 73 | 297 | 0.0 | 0.0 | 0.00 | 0.00 | 0.00 | 92 | 994.9 |
| 20260506115004 | 73 | 265 | 0.0 | 0.0 | 0.00 | 0.00 | 0.00 | 91 | 994.8 |
| 20260506114504 | 73 | 258 | 0.0 | 0.0 | 0.00 | 0.00 | 0.00 | 91 | 994.8 |
| 20260506114003 | 73 | 273 | 0.0 | 0.0 | 0.00 | 0.00 | 0.00 | 91 | 994.8 |
| 20260506113004 | 73 | 288 | 0.0 | 0.0 | 0.00 | 0.00 | 0.00 | 90 | 995.0 |
| 20260506112504 | 74 | 289 | 0.0 | 0.0 | 0.00 | 0.00 | 0.00 | 90 | 994.9 |
| 20260506111503 | 74 | 279 | 0.0 | 1.0 | 0.00 | 0.00 | 0.00 | 90 | 994.9 |
| 20260506110504 | 74 | 294 | 0.0 | 1.0 | 0.00 | 0.00 | 0.00 | 90 | 994.9 |
| 20260506105504 | 74 | 314 | 1.0 | 2.0 | 0.00 | 0.00 | 0.00 | 90 | 995.0 |
| 20260506105003 | 74 | 301 | 0.0 | 1.0 | 0.00 | 0.00 | 0.00 | 89 | 995.0 |
| 20260506104504 | 74 | 300 | 0.0 | 3.0 | 0.00 | 0.00 | 0.00 | 89 | 995.0 |
| 20260506104004 | 74 | 322 | 1.0 | 3.0 | 0.00 | 0.00 | 0.00 | 89 | 994.9 |
| 20260506103504 | 74 | 314 | 1.0 | 3.0 | 0.00 | 0.00 | 0.00 | 89 | 995.0 |
| 20260506103004 | 74 | 268 | 1.0 | 3.0 | 0.00 | 0.00 | 0.00 | 89 | 995.1 |
| 20260506102504 | 74 | 285 | 0.0 | 1.0 | 0.00 | 0.00 | 0.00 | 89 | 994.8 |
| 20260506102004 | 74 | 266 | 2.0 | 3.0 | 0.00 | 0.00 | 0.00 | 89 | 994.8 |
| 20260506101504 | 74 | 355 | 1.0 | 2.0 | 0.00 | 0.00 | 0.00 | 89 | 994.7 |
| 20260506101004 | 74 | 285 | 0.0 | 3.0 | 0.00 | 0.00 | 0.00 | 89 | 994.5 |
| 20260506100504 | 74 | 278 | 0.0 | 2.0 | 0.00 | 0.00 | 0.00 | 89 | 994.5 |
| 20260506100005 | 74 | 300 | 0.0 | 3.0 | 0.00 | 0.00 | 0.00 | 89 | 994.4 |
| 20260506095504 | 74 | 331 | 2.0 | 5.0 | 0.00 | 0.00 | 0.00 | 89 | 994.4 |
| 20260506095004 | 74 | 309 | 0.0 | 2.0 | 0.00 | 0.00 | 0.00 | 89 | 994.5 |
| 20260506094504 | 74 | 0 | 1.0 | 2.0 | 0.00 | 0.00 | 0.00 | 89 | 994.5 |
| 20260506094004 | 74 | 310 | 0.0 | 2.0 | 0.00 | 0.00 | 0.00 | 89 | 994.5 |
| 20260506093504 | 74 | 294 | 1.0 | 2.0 | 0.00 | 0.00 | 0.00 | 88 | 994.4 |
| 20260506093004 | 74 | 249 | 0.0 | 3.0 | 0.00 | 0.00 | 0.00 | 88 | 994.2 |
| 20260506092004 | 74 | 278 | 0.0 | 2.0 | 0.00 | 0.00 | 0.00 | 88 | 994.0 |
| 20260506091004 | 74 | 271 | 1.0 | 7.0 | 0.00 | 0.00 | 0.00 | 88 | 994.1 |
| 20260506090504 | 74 | 237 | 1.0 | 2.0 | 0.00 | 0.00 | 0.00 | 88 | 993.9 |
| 20260506090004 | 74 | 252 | 0.0 | 3.0 | 0.00 | 0.00 | 0.00 | 88 | 993.9 |
| 20260506085504 | 74 | 324 | 2.0 | 6.0 | 0.00 | 0.00 | 0.00 | 88 | 993.9 |
| 20260506085004 | 74 | 233 | 1.0 | 3.0 | 0.00 | 0.00 | 0.00 | 88 | 993.9 |
| 20260506084504 | 74 | 349 | 2.0 | 6.0 | 0.00 | 0.00 | 0.00 | 88 | 993.7 |
| 20260506083004 | 74 | 337 | 3.0 | 8.0 | 0.00 | 0.00 | 0.00 | 88 | 993.9 |
| 20260506082504 | 74 | 262 | 2.0 | 7.0 | 0.00 | 0.00 | 0.00 | 88 | 993.9 |
| 20260506082004 | 74 | 286 | 2.0 | 6.0 | 0.00 | 0.00 | 0.00 | 88 | 993.8 |
| 20260506080504 | 74 | 290 | 2.0 | 5.0 | 0.00 | 0.00 | 0.00 | 88 | 993.8 |
| 20260506073504 | 75 | 248 | 2.0 | 6.0 | 0.00 | 0.00 | 0.00 | 88 | 993.9 |
| 20260506073004 | 74 | 250 | 3.0 | 10.0 | 0.00 | 0.00 | 0.00 | 88 | 994.1 |
| 20260506072504 | 74 | 229 | 2.0 | 6.0 | 0.00 | 0.00 | 0.00 | 88 | 993.9 |
| 20260506072003 | 75 | 283 | 3.0 | 6.0 | 0.00 | 0.00 | 0.00 | 88 | 994.0 |
| 20260506071504 | 74 | 270 | 1.0 | 6.0 | 0.00 | 0.00 | 0.00 | 88 | 994.2 |
| 20260506071004 | 74 | 342 | 4.0 | 9.0 | 0.00 | 0.00 | 0.00 | 88 | 994.2 |
| 20260506070504 | 74 | 323 | 2.0 | 7.0 | 0.00 | 0.00 | 0.00 | 88 | 994.0 |
| 20260506062505 | 75 | 348 | 3.0 | 7.0 | 0.00 | 0.00 | 0.00 | 88 | 994.0 |
| 20260506062003 | 75 | 242 | 2.0 | 7.0 | 0.00 | 0.00 | 0.00 | 88 | 993.9 |
| 20260506061504 | 75 | 274 | 4.0 | 7.0 | 0.00 | 0.00 | 0.00 | 88 | 994.0 |
| 20260506061004 | 75 | 288 | 3.0 | 8.0 | 0.00 | 0.00 | 0.00 | 88 | 993.9 |
| 20260506060504 | 75 | 305 | 3.0 | 6.0 | 0.00 | 0.00 | 0.00 | 88 | 993.7 |
| 20260506045004 | 75 | 279 | 3.0 | 8.0 | 0.00 | 0.00 | 0.00 | 88 | 994.0 |
| 20260506044504 | 75 | 257 | 3.0 | 7.0 | 0.00 | 0.00 | 0.00 | 88 | 994.0 |
| 20260506043505 | 75 | 272 | 2.0 | 5.0 | 0.00 | 0.00 | 0.00 | 88 | 994.1 |
| 20260506043004 | 75 | 250 | 2.0 | 5.0 | 0.00 | 0.00 | 0.00 | 88 | 994.0 |
| 20260506042504 | 75 | 262 | 2.0 | 2.0 | 0.00 | 0.00 | 0.00 | 87 | 994.0 |
| 20260506042004 | 76 | 239 | 1.0 | 5.0 | 0.00 | 0.00 | 0.00 | 87 | 993.8 |
| 20260506041504 | 76 | 266 | 2.0 | 5.0 | 0.00 | 0.00 | 0.00 | 87 | 993.8 |
| 20260506041004 | 76 | 245 | 2.0 | 5.0 | 0.00 | 0.00 | 0.00 | 87 | 993.8 |
| 20260506035505 | 76 | 211 | 2.0 | 5.0 | 0.00 | 0.00 | 0.00 | 86 | 993.5 |
| 20260506034504 | 76 | 259 | 2.0 | 5.0 | 0.00 | 0.00 | 0.00 | 85 | 993.7 |
| 20260506034004 | 76 | 252 | 3.0 | 5.0 | 0.00 | 0.00 | 0.00 | 85 | 993.6 |
| 20260506033504 | 76 | 264 | 2.0 | 3.0 | 0.00 | 0.00 | 0.00 | 85 | 993.4 |
| 20260506033005 | 76 | 206 | 3.0 | 8.0 | 0.00 | 0.00 | 0.00 | 84 | 993.4 |
| 20260506032504 | 77 | 271 | 4.0 | 8.0 | 0.00 | 0.00 | 0.00 | 84 | 993.3 |
| 20260506032005 | 77 | 234 | 1.0 | 5.0 | 0.00 | 0.00 | 0.00 | 84 | 993.4 |
| 20260506031005 | 77 | 267 | 3.0 | 5.0 | 0.00 | 0.00 | 0.00 | 83 | 993.3 |
| 20260506030504 | 77 | 258 | 1.0 | 6.0 | 0.00 | 0.00 | 0.00 | 83 | 993.1 |
| 20260506030004 | 77 | 261 | 2.0 | 6.0 | 0.00 | 0.00 | 0.00 | 82 | 993.1 |
| 20260506025504 | 77 | 303 | 3.0 | 7.0 | 0.00 | 0.00 | 0.00 | 82 | 993.0 |
| 20260506025004 | 78 | 270 | 1.0 | 3.0 | 0.00 | 0.00 | 0.00 | 82 | 993.1 |
| 20260506024004 | 78 | 172 | 3.0 | 5.0 | 0.00 | 0.00 | 0.00 | 81 | 992.8 |
| 20260506023505 | 78 | 262 | 3.0 | 5.0 | 0.00 | 0.00 | 0.00 | 81 | 992.8 |
| 20260506023004 | 78 | 246 | 2.0 | 5.0 | 0.00 | 0.00 | 0.00 | 81 | 992.8 |
| 20260506022504 | 78 | 268 | 3.0 | 5.0 | 0.00 | 0.00 | 0.00 | 80 | 992.7 |
| 20260506022004 | 78 | 253 | 3.0 | 6.0 | 0.00 | 0.00 | 0.00 | 80 | 992.5 |
| 20260506021504 | 78 | 243 | 2.0 | 5.0 | 0.00 | 0.00 | 0.00 | 80 | 992.5 |
| 20260506020504 | 79 | 232 | 3.0 | 7.0 | 0.00 | 0.00 | 0.00 | 79 | 992.4 |
| 20260506015504 | 79 | 237 | 3.0 | 5.0 | 0.00 | 0.00 | 0.00 | 78 | 992.3 |
| 20260506015004 | 79 | 243 | 2.0 | 3.0 | 0.00 | 0.00 | 0.00 | 77 | 992.3 |
| 20260506014504 | 79 | 281 | 2.0 | 6.0 | 0.00 | 0.00 | 0.00 | 77 | 992.0 |
| 20260506014004 | 79 | 253 | 3.0 | 7.0 | 0.00 | 0.00 | 0.00 | 77 | 992.0 |
| 20260506013504 | 79 | 239 | 2.0 | 8.0 | 0.00 | 0.00 | 0.00 | 77 | 992.0 |
| 20260506013004 | 79 | 240 | 5.0 | 8.0 | 0.00 | 0.00 | 0.00 | 76 | 992.0 |
| 20260506012504 | 79 | 263 | 2.0 | 3.0 | 0.00 | 0.00 | 0.00 | 76 | 991.9 |
| 20260506011504 | 80 | 270 | 1.0 | 1.0 | 0.00 | 0.00 | 0.00 | 75 | 991.8 |
| 20260506011004 | 80 | 313 | 0.0 | 0.0 | 0.00 | 0.00 | 0.00 | 74 | 992.0 |
| 20260506005004 | 81 | 257 | 1.0 | 2.0 | 0.00 | 0.00 | 0.00 | 72 | 991.9 |
| 20260506004504 | 82 | 276 | 1.0 | 5.0 | 0.00 | 0.00 | 0.00 | 72 | 991.8 |
| 20260506004004 | 82 | 292 | 1.0 | 3.0 | 0.00 | 0.00 | 0.00 | 71 | 992.0 |
| 20260506003504 | 82 | 240 | 1.0 | 5.0 | 0.00 | 0.00 | 0.00 | 71 | 992.1 |
| 20260506003004 | 82 | 354 | 0.0 | 5.0 | 0.00 | 0.00 | 0.00 | 71 | 991.9 |
| 20260506002504 | 82 | 281 | 2.0 | 5.0 | 0.00 | 0.00 | 0.00 | 70 | 992.0 |
| 20260506002004 | 82 | 277 | 2.0 | 5.0 | 0.00 | 0.00 | 0.00 | 70 | 992.1 |
| 20260506001504 | 82 | 218 | 2.0 | 5.0 | 0.00 | 0.00 | 0.00 | 70 | 991.9 |
| 20260506001004 | 82 | 273 | 2.0 | 7.0 | 0.00 | 0.00 | 0.00 | 70 | 991.8 |
| 20260506000504 | 82 | 230 | 1.0 | 7.0 | 0.00 | 0.00 | 0.00 | 70 | 992.0 |
| 20260505235504 | 82 | 8 | 1.0 | 8.0 | 0.00 | 0.00 | 0.00 | 70 | 992.0 |
| 20260505235004 | 82 | 250 | 2.0 | 3.0 | 0.00 | 0.00 | 0.00 | 70 | 992.0 |
| 20260505234504 | 83 | 277 | 3.0 | 8.0 | 0.00 | 0.00 | 0.00 | 70 | 992.0 |
| 20260505234004 | 83 | 340 | 2.0 | 5.0 | 0.00 | 0.00 | 0.00 | 69 | 991.9 |
| 20260505232004 | 83 | 250 | 2.0 | 8.0 | 0.00 | 0.00 | 0.00 | 68 | 991.8 |
| 20260505231504 | 84 | 248 | 1.0 | 9.0 | 0.00 | 0.00 | 0.00 | 67 | 991.6 |
| 20260505231005 | 84 | 237 | 1.0 | 6.0 | 0.00 | 0.00 | 0.00 | 67 | 991.5 |
| 20260505230504 | 84 | 88 | 2.0 | 6.0 | 0.00 | 0.00 | 0.00 | 67 | 991.5 |
| 20260505230004 | 84 | 273 | 1.0 | 3.0 | 0.00 | 0.00 | 0.00 | 66 | 991.4 |
| 20260505225504 | 84 | 301 | 3.0 | 6.0 | 0.00 | 0.00 | 0.00 | 66 | 991.4 |
| 20260505225004 | 84 | 294 | 2.0 | 9.0 | 0.00 | 0.00 | 0.00 | 66 | 991.4 |
| 20260505224504 | 84 | 306 | 2.0 | 9.0 | 0.00 | 0.00 | 0.00 | 66 | 991.3 |
| 20260505224004 | 85 | 301 | 2.0 | 9.0 | 0.00 | 0.00 | 0.00 | 65 | 991.3 |
| 20260505223504 | 85 | 299 | 1.0 | 5.0 | 0.00 | 0.00 | 0.00 | 65 | 991.4 |
| 20260505223004 | 85 | 276 | 2.0 | 5.0 | 0.00 | 0.00 | 0.00 | 65 | 991.3 |
| 20260505222504 | 85 | 259 | 2.0 | 7.0 | 0.00 | 0.00 | 0.00 | 65 | 991.4 |
| 20260505221504 | 85 | 267 | 1.0 | 3.0 | 0.00 | 0.00 | 0.00 | 67 | 991.2 |
| 20260505221004 | 85 | 306 | 2.0 | 7.0 | 0.00 | 0.00 | 0.00 | 67 | 991.3 |
| 20260505220504 | 85 | 221 | 3.0 | 8.0 | 0.00 | 0.00 | 0.00 | 65 | 991.4 |
| 20260505220004 | 85 | 249 | 4.0 | 7.0 | 0.00 | 0.00 | 0.00 | 65 | 991.3 |
| 20260505215504 | 85 | 272 | 2.0 | 9.0 | 0.00 | 0.00 | 0.00 | 66 | 991.6 |
| 20260505214504 | 86 | 308 | 3.0 | 9.0 | 0.00 | 0.00 | 0.00 | 64 | 991.7 |
| 20260505213004 | 86 | 251 | 3.0 | 8.0 | 0.00 | 0.00 | 0.00 | 64 | 991.6 |
| 20260505212504 | 87 | 292 | 3.0 | 7.0 | 0.00 | 0.00 | 0.00 | 64 | 991.7 |
| 20260505212004 | 87 | 302 | 3.0 | 8.0 | 0.00 | 0.00 | 0.00 | 65 | 991.9 |
| 20260505211004 | 86 | 252 | 1.0 | 6.0 | 0.00 | 0.00 | 0.00 | 65 | 992.0 |
| 20260505210504 | 87 | 241 | 3.0 | 6.0 | 0.00 | 0.00 | 0.00 | 63 | 992.1 |
| 20260505205504 | 86 | 284 | 5.0 | 9.0 | 0.00 | 0.00 | 0.00 | 64 | 992.2 |
| 20260505205004 | 85 | 228 | 1.0 | 3.0 | 0.00 | 0.00 | 0.00 | 65 | 992.1 |
| 20260505204504 | 86 | 326 | 1.0 | 7.0 | 0.00 | 0.00 | 0.00 | 64 | 992.4 |
| 20260505204005 | 86 | 126 | 1.0 | 7.0 | 0.00 | 0.00 | 0.00 | 63 | 992.2 |
| 20260505203005 | 85 | 247 | 2.0 | 5.0 | 0.00 | 0.00 | 0.00 | 64 | 992.2 |
| 20260505202504 | 85 | 304 | 5.0 | 9.0 | 0.00 | 0.00 | 0.00 | 64 | 992.4 |
| 20260505202004 | 85 | 234 | 4.0 | 10.0 | 0.00 | 0.00 | 0.00 | 65 | 992.5 |
| 20260505201504 | 85 | 280 | 3.0 | 9.0 | 0.00 | 0.00 | 0.00 | 64 | 992.5 |
| 20260505201004 | 85 | 209 | 2.0 | 10.0 | 0.00 | 0.00 | 0.00 | 64 | 992.7 |
| 20260505200504 | 85 | 301 | 3.0 | 7.0 | 0.00 | 0.00 | 0.00 | 64 | 992.7 |
| 20260505195504 | 85 | 200 | 2.0 | 7.0 | 0.00 | 0.00 | 0.00 | 64 | 992.7 |
| 20260505195004 | 85 | 299 | 3.0 | 6.0 | 0.00 | 0.00 | 0.00 | 64 | 992.7 |
| 20260505194504 | 85 | 280 | 2.0 | 6.0 | 0.00 | 0.00 | 0.00 | 65 | 992.9 |
| 20260505194004 | 84 | 321 | 5.0 | 9.0 | 0.00 | 0.00 | 0.00 | 66 | 992.9 |
| 20260505193504 | 84 | 34 | 1.0 | 10.0 | 0.00 | 0.00 | 0.00 | 67 | 993.1 |
| 20260505193004 | 84 | 288 | 3.0 | 8.0 | 0.00 | 0.00 | 0.00 | 66 | 992.9 |
| 20260505192504 | 83 | 288 | 5.0 | 8.0 | 0.00 | 0.00 | 0.00 | 67 | 993.2 |
| 20260505192004 | 83 | 332 | 3.0 | 7.0 | 0.00 | 0.00 | 0.00 | 68 | 993.2 |
| 20260505191504 | 83 | 274 | 2.0 | 10.0 | 0.00 | 0.00 | 0.00 | 68 | 993.3 |
| 20260505191004 | 83 | 189 | 3.0 | 10.0 | 0.00 | 0.00 | 0.00 | 68 | 993.2 |
| 20260505190504 | 83 | 268 | 3.0 | 10.0 | 0.00 | 0.00 | 0.00 | 68 | 993.2 |
| 20260505190004 | 83 | 303 | 4.0 | 9.0 | 0.00 | 0.00 | 0.00 | 68 | 993.2 |
| 20260505185504 | 83 | 8 | 2.0 | 9.0 | 0.00 | 0.00 | 0.00 | 69 | 993.3 |
| 20260505185004 | 83 | 337 | 5.0 | 8.0 | 0.00 | 0.00 | 0.00 | 68 | 993.4 |
| 20260505184004 | 82 | 314 | 3.0 | 7.0 | 0.00 | 0.00 | 0.00 | 71 | 993.5 |
| 20260505183504 | 81 | 210 | 3.0 | 6.0 | 0.00 | 0.00 | 0.00 | 71 | 993.6 |
| 20260505182505 | 82 | 317 | 3.0 | 8.0 | 0.00 | 0.00 | 0.00 | 70 | 993.8 |
| 20260505182004 | 81 | 269 | 4.0 | 9.0 | 0.00 | 0.00 | 0.00 | 72 | 993.8 |
| 20260505181504 | 80 | 310 | 2.0 | 9.0 | 0.00 | 0.00 | 0.00 | 72 | 993.9 |
| 20260505181004 | 80 | 353 | 4.0 | 9.0 | 0.00 | 0.00 | 0.00 | 72 | 994.0 |
| 20260505180504 | 81 | 306 | 3.0 | 7.0 | 0.00 | 0.00 | 0.00 | 71 | 994.1 |
| 20260505180004 | 79 | 286 | 3.0 | 8.0 | 0.00 | 0.00 | 0.00 | 74 | 994.2 |
| 20260505175504 | 78 | 350 | 5.0 | 9.0 | 0.00 | 0.00 | 0.00 | 75 | 994.2 |
| 20260505175004 | 79 | 317 | 3.0 | 9.0 | 0.00 | 0.00 | 0.00 | 75 | 994.3 |
| 20260505174504 | 78 | 311 | 3.0 | 9.0 | 0.00 | 0.00 | 0.00 | 76 | 994.4 |
| 20260505174004 | 77 | 339 | 2.0 | 9.0 | 0.00 | 0.00 | 0.00 | 76 | 994.5 |
| 20260505173004 | 77 | 304 | 3.0 | 7.0 | 0.00 | 0.00 | 0.00 | 78 | 994.3 |
| 20260505172505 | 76 | 354 | 2.0 | 7.0 | 0.00 | 0.00 | 0.00 | 79 | 994.5 |
| 20260505172004 | 76 | 7 | 1.0 | 9.0 | 0.00 | 0.00 | 0.00 | 79 | 994.5 |
| 20260505171504 | 76 | 321 | 2.0 | 3.0 | 0.00 | 0.00 | 0.00 | 80 | 994.6 |
| 20260505171004 | 76 | 11 | 1.0 | 10.0 | 0.00 | 0.00 | 0.00 | 80 | 994.6 |
| 20260505170504 | 75 | 337 | 4.0 | 10.0 | 0.00 | 0.00 | 0.00 | 81 | 994.5 |
| 20260505170004 | 75 | 292 | 3.0 | 7.0 | 0.00 | 0.00 | 0.00 | 81 | 994.6 |
| 20260505165504 | 75 | 93 | 1.0 | 7.0 | 0.00 | 0.00 | 0.00 | 81 | 994.5 |
| 20260505165004 | 75 | 194 | 1.0 | 7.0 | 0.00 | 0.00 | 0.00 | 81 | 994.6 |
| 20260505164504 | 75 | 275 | 3.0 | 8.0 | 0.00 | 0.00 | 0.00 | 81 | 994.5 |
| 20260505164004 | 74 | 271 | 3.0 | 12.0 | 0.00 | 0.00 | 0.00 | 82 | 994.5 |